[[{"header":{"parameterUnit":"m.s-1","parameterCategory":1,"la1":30.2991,"la2":30.254,"lo1":-89.0895,"lo2":-89.0444,"dy":0.0017,"dx":0.0017,"nx":28,"ny":28,"refTime":"2025-12-21T03:00:00:Z","depth":0,"parameterNumber":2,"parameterNumberName":"U-component_of_WINDS"},"data":[0,0,0,0,0,0,0,0,0,0,0,0,0,0,0,0,0,0,0,0,0,0,0,0,0,0,0,0,0,0,0,0,0,0,0,0,0,0,0,0,0,0,0,0,0,0,0,0,0,0,0,0,0,0,0,0,0,0,-1.951,-1.951,0,-1.9547,-1.9548,-1.9548,-1.9486,-1.9483,-1.9481,-1.9479,-1.9518,-1.9521,-1.9524,0,0,0,0,0,0,0,0,0,0,0,0,0,-1.9384,-1.9387,-1.9509,-1.951,-1.951,-1.9547,-1.9548,-1.9548,-1.9486,-1.9483,-1.9481,-1.9478,-1.9517,-1.9521,-1.9524,0,0,0,0,0,0,0,0,0,0,0,0,0,-1.9432,-1.9387,-1.9509,-1.9484,-1.9482,-1.9547,-1.9548,-1.9548,-1.9486,-1.9483,-1.948,-1.9477,-1.9516,-1.952,-1.9525,-1.9617,0,0,-1.9539,-1.9541,0,0,0,0,0,0,0,0,-1.9429,-1.9436,-1.9487,-1.9486,-1.9484,-1.9508,-1.9518,-1.9571,-1.9487,-1.9485,-1.9479,-1.9476,-1.9518,-1.9522,-1.9536,-1.9619,-1.9621,-1.9539,-1.9542,-1.9544,-1.9545,0,0,0,0,0,0,0,-1.9426,-1.9435,-1.9524,-1.9488,-1.9486,-1.9471,-1.9474,-1.9528,-1.9519,-1.9485,-1.948,-1.9486,-1.9516,-1.9532,-1.9536,-1.9621,-1.9539,-1.9543,-1.9546,-1.9548,-1.9782,-1.9786,0,0,0,0,0,0,-1.9426,-1.9432,-1.9523,-1.9526,-1.9448,-1.9475,-1.9479,-1.9504,-1.9518,-1.9517,-1.9488,-1.9483,-1.9525,-1.9531,-1.9537,-1.9646,-1.9544,-1.9548,-1.9551,-1.9779,-1.9783,-1.9787,0,0,0,0,0,0,-1.9423,-1.9434,-1.9522,-1.9478,-1.9488,-1.9481,-1.9509,-1.9506,-1.9522,-1.9521,-1.9519,-1.9506,-1.9523,-1.9531,-1.9598,-1.9647,-1.955,-1.9554,-1.9775,-1.978,-1.9785,-1.9864,0,0,0,0,0,0,-1.942,-1.9434,-1.9469,-1.9479,-1.949,-1.9581,-1.9512,-1.9509,-1.953,-1.9523,-1.9537,-1.9536,-1.9521,-1.9591,-1.9602,-1.9651,-1.9558,-1.977,-1.9777,-1.9783,-1.9857,-1.9872,-1.9884,0,0,0,0,0,-1.9416,-1.9489,-1.9471,-1.9482,-1.9533,-1.9584,-1.9591,-1.9572,-1.9534,-1.9569,-1.9568,-1.9535,-1.964,-1.9599,-1.9611,-1.9661,-1.9767,-1.9775,-1.9783,-1.9851,-1.9869,-1.9884,0,0,0,0,0,0,-1.9484,-1.949,-1.9469,-1.9549,-1.9567,-1.9574,-1.9617,-1.9591,-1.962,-1.9612,-1.9589,-1.9592,-1.9664,-1.967,-1.9624,-1.9752,-1.9697,-1.9708,-1.9745,-1.9762,-1.9775,-1.9771,-1.9562,0,0,0,0,0,-1.9509,-1.955,-1.9553,-1.9622,-1.9632,-1.9624,-1.9645,-1.9629,-1.9647,-1.9654,-1.9658,-1.9677,-1.9713,-1.9738,-1.9772,-1.9859,-1.9861,-1.99,-1.9913,-1.9924,-1.9933,-1.9979,-1.9996,-1.9813,-1.9813,-1.9813,0,0,-1.956,-1.9568,-1.9595,-1.9636,-1.9648,-1.9691,-1.963,-1.9678,-1.9709,-1.9661,-1.9724,-1.9728,-1.9747,-1.9824,-1.9859,-1.9831,-1.9984,-1.9934,-1.9943,-1.9946,-1.9989,-2.0006,-2.0022,-1.9818,-1.9817,-1.9816,0,0,-1.9674,-1.9684,-1.9743,-1.9757,-1.9776,-1.977,-1.9785,-1.9796,-1.9797,-1.986,-1.9825,-1.9862,-1.9926,-1.9941,-1.9957,-2.0079,-2.005,-2.0091,-2.016,-2.0206,-2.022,-2.0233,-2.0276,-2.0291,-2.0101,-2.0101,-2.0101,0,-1.9734,-1.9797,-1.9777,-1.9828,-1.9847,-1.9806,-1.9866,-1.988,-1.991,-1.9924,-1.9893,-1.9973,-1.9983,-2.0063,-2.0093,-2.0108,-2.0123,-2.0089,-2.022,-2.0232,-2.0244,-2.0284,-2.0301,-2.0106,-2.0105,-2.0105,-2.0104,0,-1.987,-1.9915,-1.996,-1.999,-2.0015,-2.007,-2.0058,-2.0086,-2.0069,-2.0066,-2.0131,-2.0142,-2.0178,-2.0196,-2.018,-2.0274,-2.0257,-2.0223,-2.0168,-2.0266,-2.0304,-2.0319,-2.0112,-2.0111,-2.0109,-2.0108,0,0,-2.0027,-2.0046,-2.0063,-2.0076,-2.0095,-2.0129,-2.0183,-2.0217,-2.0241,-2.0264,-2.0308,-2.0364,-2.0334,-2.0352,-2.0337,-2.0378,-2.0473,-2.0339,-2.0339,-2.0363,-2.0577,-2.0601,-2.0619,-2.0455,-2.0457,-2.046,-2.0575,0,-2.0139,-2.0231,-2.0216,-2.0305,-2.0346,-2.0309,-2.0356,-2.0373,-2.0372,-2.0407,-2.0407,-2.0446,-2.0404,-2.0414,-2.0453,-2.0453,-2.0515,-2.0445,-2.0495,-2.0497,-2.049,-2.0639,-2.0664,-2.0773,-2.059,-2.0593,-2.0594,0,-2.0282,-2.031,-2.0404,-2.0417,-2.0434,-2.0476,-2.0507,-2.0541,-2.056,-2.0557,-2.0578,-2.0557,-2.0611,-2.0556,-2.063,-2.0582,-2.0602,-2.0606,-2.061,-2.0612,-2.055,-2.0645,-2.0807,-2.0823,-2.0618,-2.0616,-2.0614,0,-2.0386,-2.0447,-2.0511,-2.0523,-2.0541,-2.0571,-2.058,-2.0596,-2.0618,-2.0646,-2.066,-2.0694,-2.0712,-2.0739,-2.0728,-2.0689,-2.0804,-2.0748,-2.0802,-2.0803,-2.0826,-2.0825,-2.0993,-2.0843,-2.0842,-2.0842,-2.0842,0,-2.0512,-2.0571,-2.0558,-2.0597,-2.0661,-2.0644,-2.0708,-2.0713,-2.0727,-2.0767,-2.0738,-2.0775,-2.0759,-2.0796,-2.0787,-2.085,-2.0858,-2.0857,-2.0854,-2.0859,-2.0859,-2.087,-2.0862,-2.0846,-2.0845,-2.0844,-2.0844,0,-2.0637,-2.0631,-2.0698,-2.071,-2.0714,-2.0761,-2.0771,-2.0808,-2.0806,-2.0857,-2.0867,-2.0865,-2.0907,-2.0898,-2.0945,-2.0939,-2.1017,-2.1005,-2.101,-2.1007,-2.1061,-2.1056,-2.1241,-2.1264,-2.1101,-2.1102,-2.1103,0,-2.0718,-2.0762,-2.0778,-2.0803,-2.0814,-2.0854,-2.0877,-2.0862,-2.0887,-2.0913,-2.0947,-2.0986,-2.1017,-2.1086,-2.1088,-2.1123,-2.1111,-2.1174,-2.1116,-2.112,-2.1111,-2.1107,-2.1111,-2.1185,-2.1186,-2.1188,-2.1189,0,-2.086,-2.0855,-2.0889,-2.0923,-2.0951,-2.0977,-2.0999,-2.1021,-2.1008,-2.1038,-2.1081,-2.1105,-2.1153,-2.1192,-2.1226,-2.1235,-2.121,-2.1208,-2.1222,-2.1226,-2.1227,-2.1226,-2.104,-2.1203,-2.1202,-2.1201,-2.12,-2.1199,-2.0964,-2.1002,-2.1019,-2.1058,-2.1074,-2.1097,-2.1132,-2.1135,-2.117,-2.1208,-2.1198,-2.1246,-2.1265,-2.1308,-2.1321,-2.1359,-2.1335,-2.1356,-2.1361,-2.1366,-2.1372,-2.1223,-2.1365,-2.1365,-2.1364,-2.1364,-2.1364,0,-2.1104,-2.1114,-2.115,-2.1183,-2.1214,-2.119,-2.1214,-2.1241,-2.1284,-2.1305,-2.1336,-2.1385,-2.1424,-2.143,-2.1467,-2.1496,-2.1486,-2.1506,-2.1503,-2.1505,-2.1392,-2.1375,-2.1514,-2.1514,-2.1514,-2.1514,-2.1514,-2.1514,-2.118,-2.1242,-2.1239,-2.1309,-2.1319,-2.1366,-2.1382,-2.1403,-2.1419,-2.1476,-2.1508,-2.1512,-2.1526,-2.1564,-2.1599,-2.16,-2.1614,-2.1639,-2.1635,-2.1528,-2.1513,-2.1499,-2.1483,-2.1642,-2.1643,-2.1745,-2.1746,-2.1747]},{"header":{"parameterUnit":"m.s-1","parameterCategory":1,"la1":30.2991,"la2":30.254,"lo1":-89.0895,"lo2":-89.0444,"dy":0.0017,"dx":0.0017,"nx":28,"ny":28,"refTime":"2025-12-21T03:00:00:Z","depth":0,"parameterNumber":3,"parameterNumberName":"V-component_of_WINDS"},"data":[0,0,0,0,0,0,0,0,0,0,0,0,0,0,0,0,0,0,0,0,0,0,0,0,0,0,0,0,0,0,0,0,0,0,0,0,0,0,0,0,0,0,0,0,0,0,0,0,0,0,0,0,0,0,0,0,0,0,0.6234,0.6234,0,0.6241,0.6241,0.6241,0.6225,0.6225,0.6224,0.6224,0.6228,0.6229,0.6229,0,0,0,0,0,0,0,0,0,0,0,0,0,0.6206,0.6206,0.6233,0.6234,0.6234,0.6241,0.6241,0.6241,0.6225,0.6225,0.6224,0.6223,0.6228,0.6229,0.6229,0,0,0,0,0,0,0,0,0,0,0,0,0,0.6216,0.6206,0.6233,0.6227,0.6226,0.6241,0.6241,0.6241,0.6225,0.6225,0.6224,0.6223,0.6228,0.6229,0.6229,0.625,0,0,0.6232,0.6233,0,0,0,0,0,0,0,0,0.6215,0.6217,0.6228,0.6227,0.6227,0.6231,0.6233,0.6244,0.6225,0.6226,0.6224,0.6223,0.623,0.623,0.6233,0.625,0.625,0.6232,0.6233,0.6233,0.6233,0,0,0,0,0,0,0,0.6214,0.6216,0.6236,0.6228,0.6227,0.6223,0.6224,0.6235,0.6232,0.6225,0.6224,0.6226,0.6229,0.6232,0.6233,0.625,0.6232,0.6233,0.6234,0.6234,0.6287,0.6288,0,0,0,0,0,0,0.6215,0.6216,0.6236,0.6236,0.6219,0.6224,0.6225,0.623,0.6231,0.6231,0.6226,0.6225,0.6231,0.6232,0.6233,0.6259,0.6233,0.6234,0.6235,0.6286,0.6288,0.6289,0,0,0,0,0,0,0.6214,0.6217,0.6236,0.6226,0.6228,0.6226,0.6232,0.6231,0.6234,0.6232,0.6231,0.623,0.6231,0.6232,0.6247,0.6259,0.6234,0.6235,0.6285,0.6287,0.6288,0.6311,0,0,0,0,0,0,0.6213,0.6217,0.6224,0.6226,0.6229,0.6249,0.6233,0.6232,0.6236,0.6234,0.6236,0.6235,0.623,0.6246,0.6248,0.626,0.6236,0.6284,0.6286,0.6288,0.6309,0.6313,0.6316,0,0,0,0,0,0.6213,0.6229,0.6225,0.6227,0.6238,0.625,0.6251,0.6246,0.6237,0.6245,0.6244,0.6235,0.6257,0.6247,0.6249,0.6262,0.6284,0.6286,0.6288,0.6307,0.6312,0.6316,0,0,0,0,0,0,0.6227,0.6229,0.6224,0.6242,0.6246,0.6247,0.6257,0.6251,0.6257,0.6255,0.6248,0.6248,0.6265,0.6265,0.6253,0.6284,0.6269,0.6271,0.6283,0.6288,0.6291,0.6291,0.6237,0,0,0,0,0,0.6233,0.6243,0.6244,0.6259,0.6262,0.6259,0.6264,0.626,0.6264,0.6265,0.6265,0.6268,0.6276,0.6282,0.6289,0.6309,0.631,0.6319,0.6322,0.6325,0.6328,0.6341,0.6345,0.6295,0.6295,0.6295,0,0,0.6244,0.6246,0.6253,0.6262,0.6265,0.6276,0.6261,0.6272,0.628,0.6266,0.6281,0.6282,0.6285,0.6303,0.6311,0.6303,0.6342,0.6328,0.633,0.6331,0.6343,0.6348,0.6352,0.6296,0.6296,0.6296,0,0,0.627,0.6272,0.6287,0.6291,0.6296,0.6294,0.6298,0.6301,0.6301,0.6316,0.6307,0.6316,0.6329,0.6333,0.6336,0.6367,0.6359,0.6369,0.6388,0.6401,0.6405,0.6408,0.6421,0.6426,0.6372,0.6372,0.6372,0,0.6283,0.6299,0.6295,0.6308,0.6313,0.6303,0.6319,0.6322,0.6328,0.6332,0.6324,0.6343,0.6344,0.6364,0.6372,0.6375,0.6379,0.6369,0.6405,0.6408,0.6411,0.6423,0.6428,0.6373,0.6373,0.6373,0.6373,0,0.6316,0.6328,0.6339,0.6348,0.6354,0.6368,0.6366,0.6373,0.6369,0.6369,0.6385,0.6387,0.6395,0.6399,0.6394,0.642,0.6415,0.6406,0.6391,0.6418,0.6429,0.6433,0.6375,0.6374,0.6374,0.6374,0,0,0.6351,0.6359,0.6364,0.6369,0.6375,0.6383,0.6397,0.6407,0.6414,0.6419,0.6432,0.6445,0.6437,0.6441,0.6437,0.6448,0.6475,0.6438,0.6438,0.6446,0.6505,0.6513,0.6519,0.647,0.6471,0.6471,0.6506,0,0.6379,0.6404,0.6402,0.6426,0.6438,0.6429,0.6442,0.6447,0.6448,0.6457,0.6457,0.6468,0.6456,0.6459,0.6469,0.647,0.6487,0.6467,0.6482,0.6483,0.6483,0.6524,0.6532,0.6565,0.651,0.651,0.6511,0,0.6414,0.6423,0.6449,0.6456,0.6461,0.6472,0.6482,0.6492,0.6498,0.6497,0.6504,0.6498,0.6513,0.6498,0.6519,0.6505,0.6511,0.6513,0.6514,0.6516,0.6499,0.6529,0.6574,0.658,0.6517,0.6517,0.6516,0,0.6439,0.6458,0.6477,0.6481,0.6488,0.6497,0.6501,0.6506,0.6513,0.6522,0.6527,0.6536,0.6542,0.6549,0.6547,0.6536,0.6569,0.6553,0.657,0.6571,0.6578,0.6578,0.6627,0.658,0.658,0.658,0.658,0,0.6471,0.6488,0.6489,0.65,0.6519,0.6516,0.6535,0.6537,0.6543,0.6555,0.6548,0.6559,0.6555,0.6566,0.6564,0.6583,0.6585,0.6586,0.6585,0.6587,0.6588,0.6592,0.659,0.6581,0.6581,0.658,0.658,0,0.6503,0.6504,0.6524,0.6531,0.6533,0.6547,0.6552,0.6564,0.6564,0.658,0.6584,0.6584,0.6598,0.6596,0.661,0.6609,0.6634,0.6629,0.6632,0.6632,0.665,0.6649,0.6704,0.6712,0.6659,0.6659,0.6659,0,0.6524,0.6537,0.6546,0.6555,0.6559,0.6572,0.658,0.6578,0.6587,0.6596,0.6607,0.662,0.663,0.6652,0.6654,0.6665,0.6663,0.6681,0.6664,0.6667,0.6665,0.6665,0.6668,0.6685,0.6686,0.6686,0.6686,0,0.6562,0.6563,0.6574,0.6588,0.6598,0.6607,0.6616,0.6623,0.6622,0.6632,0.6647,0.6655,0.6671,0.6685,0.6696,0.67,0.6694,0.6692,0.6697,0.67,0.6702,0.6703,0.6643,0.6691,0.669,0.669,0.669,0.669,0.659,0.6603,0.6612,0.6626,0.6633,0.6642,0.6654,0.6657,0.667,0.6684,0.6682,0.6699,0.6706,0.6722,0.6726,0.674,0.6733,0.6739,0.6741,0.6743,0.6747,0.6699,0.6741,0.6741,0.6741,0.6741,0.6741,0,0.663,0.6636,0.6649,0.6663,0.6675,0.6669,0.6679,0.6689,0.6705,0.6713,0.6725,0.6743,0.6756,0.676,0.6774,0.6784,0.6781,0.6787,0.6787,0.6789,0.6751,0.6746,0.6789,0.6789,0.6789,0.6789,0.6789,0.6789,0.6652,0.6673,0.6675,0.6701,0.6706,0.6724,0.6731,0.674,0.6747,0.6768,0.678,0.6783,0.679,0.6804,0.6817,0.6817,0.6824,0.6831,0.6831,0.6796,0.6791,0.6786,0.6782,0.6832,0.6832,0.6868,0.6868,0.6869]}]]